Location: ??????
(55.6500°N, 37.8000°E)
Time: 03:29:33
(UTC+00:00)

CZ-4 R/B - Pass Details

Date: 14 April 2024
Orbit: 677 x 749 km, 98.6° (Epoch: 23 May)

Event Time Altitude Azimuth Distance (km) Brightness Sun altitude
Rises 01:21:39 0° 15° (NNE) 3,140 8.0 -9.0°
Reaches altitude 10° 01:23:57 10° 13° (NNE) 2,204 7.1 -8.8°
Maximum altitude 01:28:45 68° 291° (WNW) 762 3.9 -8.2°
Drops below altitude 10° 01:33:24 10° 209° (SSW) 2,146 5.8 -7.6°
Enters shadow 01:34:35 - 208° (SSW) 2,621 6.3 -7.5°
